EW8515 Weather Reports


Display with metric or nautical units.
time (UTC)temp
F
wind
direction
speed
MPH
gust
MPH
rain 1hr
in
rain 24hr
in
rain mn
in
humidity
%
barometer
mb
20181216075703 42 143 1.0 3.0 0.00 0.00 0.00 21 1026.2
20181216075150 43 143 1.0 3.0 0.00 0.00 0.00 23 1026.2
20181216074651 43 165 0.0 2.0 0.00 0.00 0.00 23 1025.9
20181216074119 43 105 0.0 0.0 0.00 0.00 0.00 23 1025.5
20181216073549 43 105 1.0 3.0 0.00 0.00 0.00 26 1025.7
20181216073046 43 105 2.0 6.0 0.00 0.00 0.00 22 1025.8
20181216072535 43 116 2.0 6.0 0.00 0.00 0.00 24 1025.8
20181216072034 43 116 1.0 3.0 0.00 0.00 0.00 22 1026.0
20181216071531 43 117 1.0 4.0 0.00 0.00 0.00 28 1026.0
20181216071030 43 117 2.0 7.0 0.00 0.00 0.00 24 1026.0
20181216070530 42 111 2.0 7.0 0.00 0.00 0.00 20 1026.2
20181216070029 42 86 2.0 3.0 0.00 0.00 0.00 25 1026.2
20181216065527 42 86 1.0 2.0 0.00 0.00 0.00 24 1026.3
20181216065026 42 86 1.0 3.0 0.00 0.00 0.00 24 1026.3
20181216064526 42 86 2.0 3.0 0.00 0.00 0.00 21 1026.3
20181216064027 42 86 2.0 3.0 0.00 0.00 0.00 22 1026.3
20181216063455 42 86 2.0 3.0 0.00 0.00 0.00 20 1026.4
20181216062946 41 86 1.0 3.0 0.00 0.00 0.00 24 1026.4
20181216062447 41 86 1.0 3.0 0.00 0.00 0.00 22 1026.7
20181216061940 41 86 1.0 3.0 0.00 0.00 0.00 24 1026.5
20181216061424 41 86 1.0 2.0 0.00 0.00 0.00 27 1026.5
20181216060921 41 86 0.0 2.0 0.00 0.00 0.00 25 1026.5
20181216060416 41 86 0.0 0.0 0.00 0.00 0.00 25 1026.5
20181216055910 41 86 0.0 0.0 0.00 0.00 0.00 27 1026.7
20181216055356 41 86 0.0 0.0 0.00 0.00 0.00 27 1026.8
20181216054849 41 86 0.0 0.0 0.00 0.00 0.00 29 1026.8
20181216054338 41 86 0.0 0.0 0.00 0.00 0.00 24 1026.7
20181216053805 41 86 0.0 0.0 0.00 0.00 0.00 24 1026.5
20181216053257 41 86 0.0 0.0 0.00 0.00 0.00 25 1026.5
20181216052748 40 86 0.0 0.0 0.00 0.00 0.00 27 1026.4
20181216052248 40 86 0.0 0.0 0.00 0.00 0.00 25 1026.5
20181216051737 40 86 0.0 0.0 0.00 0.00 0.00 26 1026.5
20181216051236 40 86 0.0 0.0 0.00 0.00 0.00 25 1026.5
20181216050704 40 86 0.0 0.0 0.00 0.00 0.00 27 1026.5
20181216050156 40 86 0.0 0.0 0.00 0.00 0.00 25 1026.5
20181216045651 40 86 0.0 0.0 0.00 0.00 0.00 25 1026.4
20181216045137 40 86 0.0 0.0 0.00 0.00 0.00 25 1026.4
20181216044633 40 86 0.0 0.0 0.00 0.00 0.00 26 1026.4
20181216044128 40 86 0.0 0.0 0.00 0.00 0.00 26 1026.4
20181216043627 40 86 0.0 0.0 0.00 0.00 0.00 23 1026.4
20181216043124 41 86 0.0 0.0 0.00 0.00 0.00 25 1026.4
20181216042541 41 86 0.0 0.0 0.00 0.00 0.00 26 1026.4
20181216042006 41 86 0.0 0.0 0.00 0.00 0.00 27 1026.4
20181216041500 41 86 0.0 0.0 0.00 0.00 0.00 25 1026.4
20181216040950 41 86 0.0 0.0 0.00 0.00 0.00 23 1026.4
20181216040446 41 86 0.0 0.0 0.00 0.00 0.00 24 1026.3
20181216035947 41 86 1.0 2.0 0.00 0.00 0.00 26 1026.3
20181216035413 41 86 1.0 3.0 0.00 0.00 0.00 23 1026.4
20181216034912 41 86 1.0 3.0 0.00 0.00 0.00 25 1026.3
20181216034413 41 86 2.0 3.0 0.00 0.00 0.00 21 1026.3
20181216033838 41 86 2.0 3.0 0.00 0.00 0.00 25 1026.3
20181216033336 41 78 1.0 3.0 0.00 0.00 0.00 26 1026.3
20181216032838 41 78 1.0 2.0 0.00 0.00 0.00 25 1026.4
20181216032329 41 78 1.0 2.0 0.00 0.00 0.00 24 1026.3
20181216031824 41 78 1.0 2.0 0.00 0.00 0.00 27 1026.3
20181216031305 41 78 1.0 2.0 0.00 0.00 0.00 23 1026.4
20181216030805 40 78 1.0 2.0 0.00 0.00 0.00 25 1026.3
20181216030306 40 78 1.0 2.0 0.00 0.00 0.00 22 1026.2
20181216025756 41 78 1.0 3.0 0.00 0.00 0.00 27 1026.5
20181216025248 41 78 2.0 3.0 0.00 0.00 0.00 29 1026.5
20181216024749 41 78 1.0 2.0 0.00 0.00 0.00 25 1026.4
20181216024030 41 78 2.0 3.0 0.00 0.00 0.00 24 1026.4
20181216023530 42 78 2.0 3.0 0.00 0.00 0.00 22 1026.3
20181216023026 42 78 2.0 3.0 0.00 0.00 0.00 25 1026.4
20181216022512 42 78 2.0 4.0 0.00 0.00 0.00 27 1026.3
20181216021955 42 78 1.0 4.0 0.00 0.00 0.00 20 1026.2
20181216021454 42 39 1.0 3.0 0.00 0.00 0.00 23 1026.2
20181216020956 42 36 1.0 4.0 0.00 0.00 0.00 21 1026.2
20181216020438 42 36 1.0 4.0 0.00 0.00 0.00 19 1026.0
20181216015938 42 100 1.0 2.0 0.00 0.00 0.00 20 1025.9
20181216015440 41 100 1.0 2.0 0.00 0.00 0.00 26 1025.9
20181216014938 41 100 1.0 2.0 0.00 0.00 0.00 23 1025.9
20181216014438 41 100 2.0 3.0 0.00 0.00 0.00 25 1025.8
20181216013939 41 100 2.0 3.0 0.00 0.00 0.00 29 1025.7
20181216013437 42 100 1.0 3.0 0.00 0.00 0.00 29 1025.7
20181216012935 42 100 0.0 2.0 0.00 0.00 0.00 34 1025.5
20181216012423 42 100 1.0 2.0 0.00 0.00 0.00 32 1025.4
20181216011923 42 100 1.0 2.0 0.00 0.00 0.00 31 1025.3
20181216011404 42 100 1.0 3.0 0.00 0.00 0.00 30 1025.4
20181216010906 42 100 1.0 3.0 0.00 0.00 0.00 28 1025.3
20181216010332 42 92 1.0 2.0 0.00 0.00 0.00 30 1025.3
20181216005801 42 92 2.0 3.0 0.00 0.00 0.00 31 1025.4
20181216005228 42 88 1.0 3.0 0.00 0.00 0.00 29 1025.4
20181216004724 42 44 1.0 3.0 0.00 0.00 0.00 30 1025.5
20181216004213 42 44 2.0 3.0 0.00 0.00 0.00 29 1025.5
20181216003657 42 44 2.0 6.0 0.00 0.00 0.00 28 1025.4
20181216003154 42 49 1.0 6.0 0.00 0.00 0.00 28 1025.3
20181216002656 42 205 1.0 2.0 0.00 0.00 0.00 31 1025.3
20181216002146 42 205 1.0 2.0 0.00 0.00 0.00 32 1024.9
20181216001648 43 205 1.0 2.0 0.00 0.00 0.00 32 1024.8
20181216001143 43 205 1.0 2.0 0.00 0.00 0.00 30 1024.8
20181216000642 43 205 1.0 2.0 0.00 0.00 0.00 30 1024.7
20181216000142 44 205 1.0 2.0 0.00 0.00 0.00 31 1024.7
20181215235638 44 205 1.0 2.0 0.00 0.00 0.00 32 1024.7
20181215235138 44 205 1.0 2.0 0.00 0.00 0.00 27 1024.6
20181215234627 45 205 1.0 2.0 0.00 0.00 0.00 30 1024.6
20181215234116 45 205 1.0 3.0 0.00 0.00 0.00 28 1024.4
20181215233612 45 205 1.0 3.0 0.00 0.00 0.00 26 1024.4
20181215233106 45 205 1.0 3.0 0.00 0.00 0.00 28 1024.6
20181215232559 45 205 1.0 2.0 0.00 0.00 0.00 31 1024.4
20181215232052 45 205 1.0 2.0 0.00 0.00 0.00 28 1024.3
20181215231553 45 205 1.0 2.0 0.00 0.00 0.00 28 1024.3
20181215231048 45 205 1.0 2.0 0.00 0.00 0.00 30 1024.2
20181215230541 45 205 1.0 2.0 0.00 0.00 0.00 33 1024.2
20181215230039 46 205 1.0 2.0 0.00 0.00 0.00 35 1024.1
20181215225542 46 205 0.0 2.0 0.00 0.00 0.00 33 1024.2
20181215225041 46 205 1.0 2.0 0.00 0.00 0.00 33 1024.2
20181215224508 46 205 1.0 3.0 0.00 0.00 0.00 33 1024.2
20181215223937 46 228 0.0 3.0 0.00 0.00 0.00 31 1024.2
20181215223405 46 293 0.0 0.0 0.00 0.00 0.00 29 1024.2
20181215222832 46 293 0.0 1.0 0.00 0.00 0.00 27 1024.2
20181215222304 46 293 1.0 4.0 0.00 0.00 0.00 28 1024.2
20181215221804 47 293 2.0 5.0 0.00 0.00 0.00 26 1024.2
20181215221246 47 318 3.0 5.0 0.00 0.00 0.00 25 1024.2
20181215220746 48 337 3.0 5.0 0.00 0.00 0.00 23 1024.3
20181215220246 48 309 2.0 6.0 0.00 0.00 0.00 23 1024.1
20181215215745 49 306 1.0 6.0 0.00 0.00 0.00 22 1023.9
20181215215246 49 287 1.0 3.0 0.00 0.00 0.00 22 1023.9
20181215214741 49 236 0.0 2.0 0.00 0.00 0.00 20 1023.8
20181215214243 50 236 0.0 2.0 0.00 0.00 0.00 21 1023.9
20181215213738 50 236 1.0 2.0 0.00 0.00 0.00 20 1023.9
20181215213229 50 234 1.0 3.0 0.00 0.00 0.00 19 1023.8
20181215212731 49 118 1.0 3.0 0.00 0.00 0.00 19 1023.8
20181215212230 50 118 2.0 4.0 0.00 0.00 0.00 18 1023.9
20181215211726 51 336 3.0 6.0 0.00 0.00 0.00 18 1023.9
20181215211222 50 343 3.0 9.0 0.00 0.00 0.00 19 1024.1
20181215210722 51 304 3.0 9.0 0.00 0.00 0.00 20 1024.1
20181215210222 50 261 3.0 7.0 0.00 0.00 0.00 18 1024.1
20181215205722 50 326 3.0 6.0 0.00 0.00 0.00 17 1024.1
20181215205223 51 287 3.0 6.0 0.00 0.00 0.00 16 1024.1
20181215204710 52 316 3.0 6.0 0.00 0.00 0.00 19 1024.1
20181215204210 51 323 3.0 6.0 0.00 0.00 0.00 20 1024.1
20181215203709 50 346 3.0 7.0 0.00 0.00 0.00 19 1024.1
20181215203208 50 302 3.0 8.0 0.00 0.00 0.00 19 1024.2
20181215202654 50 317 4.0 8.0 0.00 0.00 0.00 18 1024.2
20181215202153 51 286 3.0 8.0 0.00 0.00 0.00 18 1024.2
20181215201654 51 277 4.0 8.0 0.00 0.00 0.00 17 1024.3
20181215201153 51 329 4.0 8.0 0.00 0.00 0.00 16 1024.3
20181215200658 51 338 4.0 9.0 0.00 0.00 0.00 16 1024.3
20181215200153 51 344 4.0 9.0 0.00 0.00 0.00 14 1024.4
20181215195653 51 292 4.0 9.0 0.00 0.00 0.00 15 1024.6
20181215195150 51 327 5.0 9.0 0.00 0.00 0.00 15 1024.6
20181215194650 52 327 4.0 9.0 0.00 0.00 0.00 15 1024.6
20181215194151 52 215 3.0 9.0 0.00 0.00 0.00 16 1024.6
20181215193650 52 311 3.0 9.0 0.00 0.00 0.00 14 1024.6
20181215193145 52 252 2.0 4.0 0.00 0.00 0.00 15 1024.7
20181215192647 52 294 2.0 4.0 0.00 0.00 0.00 15 1024.7
20181215192145 51 302 2.0 4.0 0.00 0.00 0.00 15 1024.8
20181215191638 50 257 2.0 4.0 0.00 0.00 0.00 15 1024.9
20181215191134 50 252 2.0 4.0 0.00 0.00 0.00 14 1025.2
20181215190634 51 25 2.0 4.0 0.00 0.00 0.00 16 1025.3
20181215190133 49 306 2.0 4.0 0.00 0.00 0.00 21 1025.4
20181215185629 48 306 2.0 4.0 0.00 0.00 0.00 20 1025.5
20181215185130 47 261 3.0 7.0 0.00 0.00 0.00 22 1025.7
20181215184629 48 260 4.0 7.0 0.00 0.00 0.00 22 1025.8
20181215184130 48 259 4.0 7.0 0.00 0.00 0.00 21 1025.7
20181215183614 48 308 5.0 11.0 0.00 0.00 0.00 22 1025.8
20181215183114 49 310 5.0 11.0 0.00 0.00 0.00 18 1025.8
20181215182612 51 338 4.0 8.0 0.00 0.00 0.00 18 1025.8
20181215182112 51 355 3.0 8.0 0.00 0.00 0.00 17 1025.7
20181215181611 52 255 3.0 8.0 0.00 0.00 0.00 16 1025.8
20181215181112 52 293 3.0 8.0 0.00 0.00 0.00 15 1025.8
20181215180610 51 334 2.0 4.0 0.00 0.00 0.00 13 1025.8
20181215180107 52 277 2.0 4.0 0.00 0.00 0.00 13 1025.8
20181215175603 51 298 2.0 4.0 0.00 0.00 0.00 14 1025.9
20181215175101 50 273 2.0 4.0 0.00 0.00 0.00 13 1026.0
20181215174600 50 286 2.0 4.0 0.00 0.00 0.00 16 1026.0
20181215174040 49 291 1.0 3.0 0.00 0.00 0.00 14 1026.2
20181215173536 47 244 1.0 3.0 0.00 0.00 0.00 17 1026.2
20181215173035 47 105 0.0 2.0 0.00 0.00 0.00 22 1026.3
20181215172534 47 105 0.0 2.0 0.00 0.00 0.00 17 1026.4
20181215172023 47 105 0.0 1.0 0.00 0.00 0.00 26 1026.4
20181215171523 48 105 1.0 2.0 0.00 0.00 0.00 14 1026.5
20181215170513 48 105 1.0 2.0 0.00 0.00 0.00 14 1026.5
20181215170012 47 105 0.0 1.0 0.00 0.00 0.00 22 1026.7
20181215165441 46 105 0.0 1.0 0.00 0.00 0.00 16 1026.7
20181215164935 46 105 0.0 1.0 0.00 0.00 0.00 22 1026.7
20181215164436 46 105 0.0 1.0 0.00 0.00 0.00 23 1026.7
20181215163936 46 105 0.0 1.0 0.00 0.00 0.00 32 1026.8
20181215163405 45 105 0.0 1.0 0.00 0.00 0.00 19 1026.8
20181215162832 44 105 0.0 0.0 0.00 0.00 0.00 28 1026.9
20181215162327 43 105 0.0 1.0 0.00 0.00 0.00 30 1026.8
20181215161824 43 105 1.0 1.0 0.00 0.00 0.00 28 1026.8
20181215161321 42 105 1.0 2.0 0.00 0.00 0.00 31 1026.7
20181215160817 41 105 1.0 2.0 0.00 0.00 0.00 33 1026.5
20181215160317 41 105 1.0 2.0 0.00 0.00 0.00 30 1026.5
20181215155813 41 105 0.0 2.0 0.00 0.00 0.00 32 1026.4
20181215155313 41 105 0.0 2.0 0.00 0.00 0.00 33 1026.2
20181215154810 40 105 1.0 2.0 0.00 0.00 0.00 29 1026.3
20181215154309 40 105 2.0 3.0 0.00 0.00 0.00 29 1026.0
20181215153810 39 105 1.0 3.0 0.00 0.00 0.00 30 1025.9
20181215153310 39 105 1.0 2.0 0.00 0.00 0.00 35 1025.9
20181215152753 38 105 0.0 2.0 0.00 0.00 0.00 34 1025.9
20181215152249 38 105 1.0 2.0 0.00 0.00 0.00 27 1025.8
20181215151745 38 105 1.0 2.0 0.00 0.00 0.00 32 1025.7
20181215151244 37 105 1.0 2.0 0.00 0.00 0.00 30 1025.5
20181215150738 37 105 1.0 2.0 0.00 0.00 0.00 31 1025.7
20181215150237 36 105 1.0 2.0 0.00 0.00 0.00 30 1025.7
20181215145722 36 105 1.0 2.0 0.00 0.00 0.00 34 1025.7
20181215145221 36 105 1.0 3.0 0.00 0.00 0.00 35 1025.8
20181215144717 36 105 1.0 3.0 0.00 0.00 0.00 30 1025.5
20181215144218 35 105 1.0 3.0 0.00 0.00 0.00 33 1025.7
20181215143718 35 105 1.0 2.0 0.00 0.00 0.00 30 1025.7
20181215143218 35 105 2.0 3.0 0.00 0.00 0.00 27 1025.8
20181215142717 34 105 1.0 3.0 0.00 0.00 0.00 31 1025.8
20181215142210 34 105 1.0 2.0 0.00 0.00 0.00 29 1025.8
20181215141653 34 105 0.0 2.0 0.00 0.00 0.00 32 1025.8
20181215141152 34 105 0.0 0.0 0.00 0.00 0.00 36 1025.9
20181215140649 34 105 1.0 2.0 0.00 0.00 0.00 32 1025.7
20181215140148 34 105 1.0 2.0 0.00 0.00 0.00 32 1025.7
20181215135621 33 105 1.0 2.0 0.00 0.00 0.00 32 1025.5
20181215135115 33 105 0.0 2.0 0.00 0.00 0.00 36 1025.5
20181215134613 33 105 0.0 2.0 0.00 0.00 0.00 36 1025.5
20181215134111 33 105 0.0 0.0 0.00 0.00 0.00 37 1025.4
20181215133555 32 105 0.0 0.0 0.00 0.00 0.00 37 1025.4
20181215133056 32 105 0.0 0.0 0.00 0.00 0.00 37 1025.3
20181215132556 32 105 0.0 0.0 0.00 0.00 0.00 37 1025.4
20181215132023 32 105 0.0 0.0 0.00 0.00 0.00 36 1025.3
20181215131451 32 105 0.0 0.0 0.00 0.00 0.00 35 1025.3
20181215130919 32 105 0.0 0.0 0.00 0.00 0.00 37 1025.3
20181215130348 32 105 0.0 0.0 0.00 0.00 0.00 33 1025.3
20181215125825 32 105 0.0 2.0 0.00 0.00 0.00 31 1025.3
20181215125317 33 105 1.0 3.0 0.00 0.00 0.00 36 1025.2
20181215124806 33 105 1.0 3.0 0.00 0.00 0.00 31 1025.2
20181215124305 32 111 0.0 3.0 0.00 0.00 0.00 30 1025.3
20181215123752 32 114 0.0 0.0 0.00 0.00 0.00 31 1025.2
20181215123243 32 115 0.0 0.0 0.00 0.00 0.00 32 1025.2
20181215122737 33 115 0.0 0.0 0.00 0.00 0.00 32 1025.3
20181215122238 33 115 0.0 0.0 0.00 0.00 0.00 36 1025.3
20181215121736 33 115 0.0 1.0 0.00 0.00 0.00 32 1025.3
20181215121233 33 115 1.0 4.0 0.00 0.00 0.00 32 1025.3
20181215120725 33 115 1.0 4.0 0.00 0.00 0.00 30 1025.3
20181215120225 33 112 1.0 3.0 0.00 0.00 0.00 28 1025.4
20181215115726 33 107 1.0 3.0 0.00 0.00 0.00 30 1025.4
20181215115221 33 108 1.0 3.0 0.00 0.00 0.00 30 1025.3
20181215114722 32 126 1.0 3.0 0.00 0.00 0.00 31 1025.3
20181215114221 32 119 1.0 3.0 0.00 0.00 0.00 31 1025.3
20181215113719 31 123 0.0 2.0 0.00 0.00 0.00 32 1025.4
20181215113209 31 123 0.0 0.0 0.00 0.00 0.00 34 1025.4
20181215112708 31 123 0.0 1.0 0.00 0.00 0.00 36 1025.5
20181215112146 31 123 0.0 1.0 0.00 0.00 0.00 37 1025.5
20181215111645 32 123 0.0 1.0 0.00 0.00 0.00 37 1025.5
20181215111142 32 123 0.0 3.0 0.00 0.00 0.00 36 1025.7
20181215110635 32 123 1.0 3.0 0.00 0.00 0.00 36 1025.7
20181215110135 32 123 1.0 3.0 0.00 0.00 0.00 34 1025.8
20181215105635 31 121 1.0 3.0 0.00 0.00 0.00 33 1025.9
20181215105103 31 100 0.0 3.0 0.00 0.00 0.00 36 1025.8
20181215104541 31 53 1.0 1.0 0.00 0.00 0.00 36 1026.0
20181215104036 31 53 1.0 1.0 0.00 0.00 0.00 36 1026.2
20181215103530 31 53 1.0 1.0 0.00 0.00 0.00 35 1026.2
20181215103009 31 53 1.0 2.0 0.00 0.00 0.00 35 1026.2
20181215102508 31 53 1.0 2.0 0.00 0.00 0.00 36 1026.2
20181215102002 30 53 1.0 2.0 0.00 0.00 0.00 37 1026.0
20181215101457 30 53 1.0 2.0 0.00 0.00 0.00 39 1026.2
20181215100959 30 53 1.0 2.0 0.00 0.00 0.00 40 1026.2
20181215100445 30 53 1.0 2.0 0.00 0.00 0.00 36 1026.0
20181215095940 30 53 1.0 2.0 0.00 0.00 0.00 37 1026.0
20181215095440 31 53 0.0 1.0 0.00 0.00 0.00 39 1025.9
20181215094941 31 53 0.0 1.0 0.00 0.00 0.00 40 1025.8
20181215094441 31 53 0.0 1.0 0.00 0.00 0.00 40 1025.7
20181215093936 31 53 0.0 1.0 0.00 0.00 0.00 33 1025.8
20181215093438 31 53 0.0 3.0 0.00 0.00 0.00 35 1025.9
20181215092936 31 53 1.0 3.0 0.00 0.00 0.00 34 1025.9
20181215092438 31 105 1.0 2.0 0.00 0.00 0.00 35 1025.9
20181215091921 31 105 1.0 2.0 0.00 0.00 0.00 37 1026.0
20181215091412 31 105 1.0 2.0 0.00 0.00 0.00 38 1026.0
20181215090907 31 105 1.0 2.0 0.00 0.00 0.00 40 1026.2
20181215090404 31 105 1.0 1.0 0.00 0.00 0.00 38 1026.2
20181215085902 31 105 1.0 2.0 0.00 0.00 0.00 33 1026.0
20181215085352 31 105 1.0 3.0 0.00 0.00 0.00 36 1026.0
20181215084849 31 105 0.0 3.0 0.00 0.00 0.00 35 1026.0
20181215084348 31 105 0.0 1.0 0.00 0.00 0.00 35 1026.0
20181215083643 31 105 0.0 1.0 0.00 0.00 0.00 33 1026.0
20181215083143 31 105 0.0 1.0 0.00 0.00 0.00 34 1026.2
20181215082643 31 105 0.0 1.0 0.00 0.00 0.00 36 1026.0
20181215082141 31 105 0.0 1.0 0.00 0.00 0.00 33 1026.0
20181215081627 31 105 0.0 1.0 0.00 0.00 0.00 35 1026.2
20181215081127 31 105 0.0 1.0 0.00 0.00 0.00 36 1026.2
20181215080555 32 105 0.0 2.0 0.00 0.00 0.00 38 1026.2